www.pogodaiklimat.ru

Погода и климат >> Архив погоды >> Швейцария >> Мюлеберг


ПОГОДА в Мюлеберге

  • Прогноз погоды в Мюлеберге
  • Монитор погоды в Мюлеберге

АРХИВ ПОГОДЫ в Мюлеберге

Время (UTC), дата Ветер
(напр.,м/с)
 
Видим.   Явления Облачность Т
(С)
Тd
(С)
f
(%)
Тe
(С)
Тes
(С)
Комфортность P
(гПа)
Po
(гПа)
Тmin
(С)
Tmax
(С)
R
(мм)
R24
(мм)
S
(см)
10 19.03 В 5
{8}
н/о н/о +6.1 -0.3 64 +2 +2 1026.7 968.5
11 19.03 СВ 3
{8}
н/о н/о +7.2 -1.5 54 +5 +5 1026.4 968.5
12 19.03 В 5
{11}
н/о н/о +8.1 -4.4 41 +5 +5 1026.4 968.6
13 19.03 В 5
{10}
н/о н/о +7.6 -3.6 45 +5 +5 1026.7 968.8
14 19.03 В 4
{12}
н/о н/о +8.5 -4.3 40 +6 +6 1026.5 968.8
15 19.03 В 5
{12}
н/о н/о +8.6 -5.3 37 +6 +6 1026.4 968.7
16 19.03 В 3
{10}
н/о н/о +8.2 -4.7 40 +6 +6 1026.9 969.1
17 19.03 В 2
{10}
н/о н/о +6.8 -4.4 45 +6 +6 1027.9 969.8
18 19.03 СВ 1
{12}
н/о н/о +5.7 -2.4 56 +5 +5 1028.8 970.4 +8.9
19 19.03 СВ 1
{3}
н/о н/о +4.7 -2.1 61 +4 +4 1029.5 970.9
20 19.03 В 1
{3}
н/о н/о +3.5 -1.8 68 +2 +2 1030.1 971.2
21 19.03 В 2
{3}
н/о н/о +2.8 -2.2 70 +1 +1 1030.8 971.7
22 19.03 В 1
{3}
н/о н/о +1.6 -1.6 79 -0 -0 1031.5 972.1
23 19.03 В 2
{2}
н/о н/о +1.0 -1.5 83 -2 -2 1032.0 972.4
00 20.03 В 2
{5}
н/о н/о +2.3 -2.4 71 -1 -1 1031.7 972.4
01 20.03 В 1
{3}
н/о н/о +1.2 -2.0 79 -1 -1 1031.9 972.4
02 20.03 В 2
{3}
н/о н/о +0.6 -2.0 83 -2 -2 1032.3 972.6
03 20.03 В 1
{3}
н/о н/о 0.0 -2.7 82 -2 -2 1032.3 972.5
04 20.03 В 2
{3}
н/о н/о -0.5 -2.8 84 -4 -4 1032.5 972.6
05 20.03 В 2
{4}
н/о н/о -0.9 -3.0 86 -5 -5 1032.8 972.8
06 20.03 В 1
{4}
н/о н/о -1.3 -3.0 88 -4 -4 1033.5 973.3 -1.3
07 20.03 В 3
{5}
н/о н/о +1.1 -2.4 77 -3 -3 1033.4 973.8
08 20.03 ЮВ 4
{6}
н/о н/о +3.1 -1.8 70 -1 -1 1033.3 974.1
09 20.03 В 4
{9}
н/о н/о +5.8 -2.3 56 +3 +3 1032.5 973.9
10 20.03 В 3
{10}
н/о н/о +7.4 -2.7 49 +5 +5 1032.0 973.8
11 20.03 В 5
{10}
н/о н/о +8.0 -3.3 45 +5 +5 1031.9 973.8
12 20.03 В 5
{12}
н/о н/о +9.4 -2.7 43 +7 +7 1031.2 973.4
13 20.03 В 6
{11}
н/о н/о +9.9 -4.2 37 +7 +7 1030.7 973.1
14 20.03 В 4
{12}
н/о н/о +10.3 -4.3 36 +8 +8 1030.4 972.9
15 20.03 В 7
{13}
н/о н/о +10.3 -5.3 33 +7 +7 1030.1 972.6
16 20.03 В 5
{11}
н/о н/о +10.0 -5.6 33 +8 +8 1030.4 972.8
17 20.03 В 5
{11}
н/о н/о +9.3 -5.1 36 +7 +7 1030.8 973.0
18 20.03 В 4
{13}
н/о н/о +8.0 -4.3 41 +6 +6 1031.8 973.7 +10.3
19 20.03 В 3
{6}
н/о н/о +7.1 -4.0 45 +5 +5 1032.2 973.9
20 20.03 В 3
{6}
н/о н/о +6.2 -4.2 47 +4 +4 1032.5 974.0
21 20.03 В 3
{6}
н/о н/о +5.7 -4.3 49 +3 +3 1032.3 973.7
22 20.03 В 3
{7}
н/о н/о +5.6 -3.9 50 +3 +3 1032.2 973.6
23 20.03 В 2
{6}
н/о н/о +4.5 -3.4 56 +2 +2 1032.5 973.6
00 21.03 С 2
{7}
н/о н/о +4.1 -3.5 58 +2 +2 1032.5 973.6
01 21.03 В 1
{4}
н/о н/о +2.5 -2.9 68 +1 +1 1032.5 973.2
02 21.03 В 1
{1}
н/о н/о +1.1 -2.7 76 +1 +1 1032.3 972.7
03 21.03 штиль 0
{4}
н/о н/о -0.2 -2.3 86 -1 -1 1032.6 972.7
04 21.03 штиль 0
{1}
н/о н/о -0.6 -2.8 85 -2 -2 1033.0 973.0
05 21.03 В 1
{1}
н/о н/о -0.8 -2.5 88 -1 -1 1033.3 973.3
06 21.03 штиль 0
{4}
н/о н/о -1.1 -2.7 89 -2 -2 1033.6 973.5 -1.4
07 21.03 штиль 0
{1}
н/о н/о +0.5 -2.1 83 -1 -1 1033.5 973.7
08 21.03 ЮВ 2
{3}
н/о н/о +3.6 -1.9 67 +2 +2 1032.5 973.5
09 21.03 ЮВ 3
{5}
н/о н/о +5.6 -2.0 58 +3 +3 1032.2 973.6
10 21.03 ЮВ 3
{5}
н/о н/о +7.1 -1.5 54 +5 +5 1031.7 973.4
11 21.03 В 3
{7}
н/о н/о +8.4 -2.6 46 +7 +7 1031.2 973.2
12 21.03 В 5
{9}
н/о н/о +9.6 -2.3 43 +7 +7 1030.6 972.9
13 21.03 СВ 3
{8}
н/о н/о +10.8 -1.9 41 +10 +10 1030.0 972.6
14 21.03 ЮВ 4
{7}
н/о н/о +11.3 -1.5 41 +9 +9 1029.4 972.1
15 21.03 В 3
{8}
н/о н/о +11.7 -0.8 42 +11 +11 1029.1 971.9
17 21.03 В 3
{5}
н/о н/о +11.1 -0.7 44 +10 +10 1029.5 972.2
18 21.03 В 1
{8}
н/о н/о +8.6 0.0 55 +9 +9 1030.4 972.5 +11.8
19 21.03 В 2
{2}
н/о н/о +5.9 +0.7 69 +4 +4 1031.2 972.7
21 21.03 В 1
{2}
н/о н/о +2.9 +0.2 82 +3 +3 1032.1 972.9
22 21.03 штиль 0
{1}
н/о н/о +2.2 +0.3 87 +1 +1 1032.2 972.9
23 21.03 СВ 1
{1}
н/о н/о +1.5 -0.5 87 +1 +1 1032.4 972.9
00 22.03 СВ 1
{2}
н/о н/о +1.0 -0.5 90 0 0 1032.6 973.0
01 22.03 штиль 0
{1}
н/о н/о +0.4 -0.8 92 -1 -1 1032.6 972.9
02 22.03 штиль 0 н/о н/о +0.1 -0.7 94 -1 -1 1032.7 972.9
03 22.03 СВ 1
{2}
н/о н/о -0.3 -1.1 94 -1 -1 1032.9 973.0
04 22.03 штиль 0
{2}
н/о н/о -0.7 -1.3 96 -2 -2 1033.2 973.2
05 22.03 штиль 0
{1}
н/о н/о -0.8 -1.4 96 -2 -2 1033.4 973.4
06 22.03 СВ 1
{2}
н/о н/о -1.2 -1.7 96 -2 -2 1033.9 973.7 -1.1
07 22.03 СВ 1
{2}
н/о н/о +0.8 -0.5 91 0 0 1033.6 973.9
08 22.03 В 1
{2}
н/о н/о +4.1 +0.7 78 +4 +4 1032.5 973.6
09 22.03 ЮЗ 1
{2}
н/о н/о +7.6 +0.8 62 +7 +7 1031.7 973.5
10 22.03 ЮЗ 1
{2}
н/о н/о +9.9 +0.8 53 +10 +10 1030.8 973.2
11 22.03 ЮЗ 1
{3}
н/о н/о +11.9 +0.9 47 +12 +12 1029.9 972.7
12 22.03 С 2
{3}
н/о н/о +13.6 +1.5 44 +14 +14 1029.0 972.2
13 22.03 З 2
{3}
н/о н/о +14.9 +0.5 37 +15 +15 1028.1 971.6
14 22.03 ЮЗ 2
{3}
н/о н/о +16.1 -0.3 33 +17 +17 1027.3 971.1
15 22.03 З 1
{3}
н/о н/о +17.1 -1.2 29 +19 +19 1026.8 970.8
16 22.03 СЗ 2
{3}
н/о н/о +16.7 +0.2 33 +17 +17 1026.5 970.5
17 22.03 З 1
{2}
н/о н/о +15.2 0.0 35 +16 +16 1026.6 970.3
18 22.03 штиль 0
{3}
н/о н/о +10.8 +3.4 60 +10 +10 1027.7 970.4 +17.1
19 22.03 В 1
{2}
н/о н/о +7.9 +3.1 72 +8 +8 1028.7 970.8
20 22.03 В 2
{2}
н/о н/о +7.3 +2.7 73 +6 +6 1029.1 971.0
21 22.03 В 1
{2}
н/о н/о +5.6 +1.9 77 +6 +6 1029.7 971.2
22 22.03 штиль 0
{2}
н/о н/о +5.1 +1.9 80 +4 +4 1030.1 971.5
23 22.03 В 1
{2}
н/о н/о +4.2 +1.8 84 +3 +3 1030.4 971.6
00 23.03 СВ 1
{2}
н/о н/о +3.2 +1.7 90 +3 +3 1030.6 971.6
01 23.03 СВ 1
{2}
н/о н/о +2.7 +1.0 89 +2 +2 1030.6 971.5
02 23.03 штиль 0
{1}
н/о н/о +2.4 +0.8 89 +1 +1 1030.7 971.5
03 23.03 штиль 0
{2}
н/о н/о +1.6 +0.4 92 0 0 1030.9 971.5
04 23.03 СВ 1
{1}
н/о н/о +1.1 +0.1 93 +1 +1 1030.8 971.3
05 23.03 штиль 0
{2}
н/о н/о +0.8 -0.1 94 -1 -1 1031.0 971.4
06 23.03 штиль 0
{2}
н/о н/о +0.6 -0.2 94 -1 -1 1031.2 971.6 +0.3
07 23.03 штиль 0 н/о н/о +2.5 +0.7 88 +1 +1 1030.9 971.7
08 23.03 В 1
{2}
н/о н/о +5.8 +1.8 75 +5 +5 1030.0 971.6
09 23.03 ЮЗ 1
{2}
н/о н/о +9.8 +2.1 59 +11 +11 1029.0 971.4
10 23.03 ЮЗ 1
{2}
н/о н/о +12.7 +1.2 45 +14 +14 1028.0 971.1
11 23.03 З 1
{3}
н/о н/о +14.4 +3.2 47 +15 +15 1027.0 970.5
12 23.03 ЮЗ 2
{4}
н/о н/о +16.1 +3.0 41 +17 +17 1026.0 969.9
13 23.03 ЮЗ 2
{4}
н/о н/о +17.7 +0.6 32 +18 +18 1024.9 969.1
14 23.03 ЮВ 2
{4}
н/о н/о +18.6 -0.2 28 +19 +19 1024.0 968.5
15 23.03 Ю 1
{4}
н/о н/о +18.7 -2.1 24 +20 +20 1023.6 968.1
16 23.03 СВ 2
{5}
н/о н/о +18.6 -0.8 27 +19 +19 1023.5 968.0
17 23.03 В 1
{4}
н/о н/о +17.7 -0.2 30 +19 +19 1023.7 968.0
18 23.03 В 1
{5}
н/о н/о +12.0 +3.0 54 +12 +12 1025.1 968.2 +19.1
19 23.03 В 1
{2}
н/о н/о +10.4 +3.7 63 +10 +10 1026.1 968.8
20 23.03 В 1
{2}
н/о н/о +8.2 +3.2 71 +9 +9 1026.7 968.9
21 23.03 В 1
{2}
н/о н/о +7.1 +2.7 74 +6 +6 1026.8 968.8
22 23.03 В 1
{2}
н/о н/о +5.9 +2.3 78 +5 +5 1026.8 968.6
23 23.03 В 1
{2}
н/о н/о +5.2 +1.8 79 +5 +5 1026.8 968.4
00 24.03 ЮЗ 1
{2}
н/о н/о +4.5 +1.6 81 +4 +4 1026.8 968.3
01 24.03 штиль 0
{1}
н/о н/о +3.6 +1.6 87 +3 +3 1026.7 968.0
02 24.03 В 1
{2}
н/о н/о +3.2 +1.3 87 +3 +3 1026.6 967.8
03 24.03 штиль 0
{2}
н/о н/о +2.7 +1.4 91 +2 +2 1026.5 967.6
04 24.03 штиль 0 н/о н/о +2.2 +1.2 93 +1 +1 1026.8 967.8
05 24.03 штиль 0 н/о н/о +1.7 +0.9 94 0 0 1027.2 968.1
06 24.03 штиль 0
{2}
н/о н/о +1.6 +0.7 94 0 0 1027.6 968.4 +1.4
07 24.03 штиль 0 н/о н/о +3.2 +1.7 90 +2 +2 1027.2 968.4
08 24.03 СВ 1
{2}
н/о н/о +6.8 +3.3 78 +7 +7 1026.4 968.4
09 24.03 ЮЗ 1
{2}
н/о н/о +10.1 +2.7 60 +11 +11 1025.2 967.9
10 24.03 З 2
{3}
н/о н/о +12.5 +3.1 53 +12 +12 1024.2 967.5
11 24.03 З 2
{3}
н/о н/о +14.4 +3.9 49 +14 +14 1023.3 967.0
12 24.03 З 2
{4}
н/о н/о +15.8 +2.8 42 +16 +16 1022.5 966.5
13 24.03 З 2
{4}
н/о н/о +17.3 +3.1 39 +18 +18 1021.3 965.7
14 24.03 З 2
{4}
н/о н/о +18.4 +1.5 32 +19 +19 1020.5 965.1
15 24.03 З 3
{5}
н/о н/о +18.3 0.0 29 +19 +19 1020.1 964.7
16 24.03 З 3
{7}
н/о н/о +18.0 0.0 30 +18 +18 1019.8 964.4
17 24.03 СЗ 3
{8}
н/о н/о +16.4 +2.4 39 +16 +16 1020.5 964.7
18 24.03 С 1
{8}
н/о н/о +12.2 +3.6 56 +13 +13 1022.0 965.3 +18.5
19 24.03 В 1
{2}
н/о н/о +10.1 +3.2 62 +11 +11 1022.9 965.7
20 24.03 штиль 0
{1}
н/о н/о +8.6 +3.6 71 +8 +8 1023.6 966.1
21 24.03 В 1
{2}
н/о н/о +7.1 +3.9 80 +6 +6 1024.0 966.2
22 24.03 В 1
{2}
н/о н/о +6.1 +3.6 84 +6 +6 1024.3 966.2
23 24.03 С 1
{1}
н/о н/о +5.0 +3.5 90 +5 +5 1024.1 965.8
00 25.03 В 1
{2}
н/о н/о +4.5 +2.9 89 +4 +4 1023.9 965.5
01 25.03 штиль 0
{1}
н/о н/о +3.8 +2.5 91 +3 +3 1023.6 965.1
02 25.03 штиль 0
{1}
н/о н/о +3.2 +2.2 93 +2 +2 1023.8 965.2
03 25.03 штиль 0
{1}
н/о н/о +2.6 +1.9 95 +1 +1 1023.8 965.0
04 25.03 штиль 0
{1}
н/о н/о +3.1 +2.3 94 +2 +2 1023.9 965.2
05 25.03 штиль 0
{1}
н/о н/о +3.5 +2.4 92 +2 +2 1024.1 965.5
06 25.03 штиль 0
{1}
н/о н/о +4.0 +2.8 92 +3 +3 1024.1 965.6 +2.6
07 25.03 штиль 0
{1}
н/о н/о +4.0 +2.8 92 +3 +3 1024.2 965.7
08 25.03 ЮЗ 1
{2}
н/о н/о +6.4 +4.0 85 +6 +6 1023.9 965.9
09 25.03 З 2
{3}
н/о н/о +9.4 +3.5 67 +8 +8 1023.2 965.9
10 25.03 З 4
{6}
н/о н/о +10.4 +1.3 53 +8 +8 1022.7 965.6
11 25.03 СЗ 4
{7}
н/о н/о +10.9 -3.4 36 +9 +9 1022.5 965.5
12 25.03 СЗ 5
{9}
н/о н/о +10.4 -2.7 40 +8 +8 1023.1 966.0
13 25.03 СЗ 5
{12}
н/о н/о +10.1 -2.4 41 +8 +8 1023.0 965.8
14 25.03 С 3
{11}
н/о н/о +9.4 -2.5 43 +8 +8 1023.3 966.0
15 25.03 СЗ 5
{12}
н/о н/о +9.5 -4.6 37 +7 +7 1023.5 966.2
16 25.03 С 4
{9}
н/о н/о +9.3 -4.3 38 +7 +7 1023.4 966.1
17 25.03 З 4
{10}
н/о н/о +5.7 -2.1 57 +3 +3 1025.1 966.9
18 25.03 СЗ 1
{12}
н/о н/о +4.1 -1.0 69 +4 +4 1025.3 966.8 +11.4
19 25.03
{6}
н/о н/о +5.1 -1.1 64 1025.9 967.5
20 25.03 СВ 1
{3}
н/о н/о +5.2 -3.2 55 +4 +4 1026.1 967.8
21 25.03 СВ 1
{6}
н/о н/о +4.9 -3.3 55 +5 +5 1025.9 967.5
22 25.03 С 2
{9}
н/о н/о +3.6 +0.2 78 +1 +1 1027.1 968.4
23 25.03 СВ 2
{6}
н/о н/о +4.7 -1.2 66 +2 +2 1026.6 968.1
00 26.03 В 3
{9}
н/о н/о +3.1 +0.5 83 -1 -1 1027.3 968.4
01 26.03 В 1
{5}
н/о н/о +2.2 +0.6 89 0 0 1028.0 968.9
02 26.03 СВ 1
{4}
н/о н/о +1.8 -0.4 85 +1 +1 1028.0 968.8
03 26.03 СВ 1
{5}
н/о н/о +3.8 -2.0 66 +3 +3 1027.6 968.9
04 26.03 СВ 1
{4}
н/о н/о +3.3 -1.2 72 +3 +3 1028.4 969.5
05 26.03 СВ 1
{4}
н/о н/о +1.2 -1.5 82 +1 +1 1029.2 969.8
06 26.03 В 1
{5}
н/о н/о +2.2 -0.7 81 +1 +1 1029.5 970.3 +1.1
07 26.03 В 2
{4}
н/о н/о +3.4 -0.6 75 +1 +1 1029.6 970.7
08 26.03 СВ 5
{10}
н/о н/о +4.6 -1.6 64 0 0 1029.8 971.1
09 26.03 В 4
{10}
н/о н/о +5.0 -1.1 65 +1 +1 1029.9 971.3
10 26.03 В 4
{11}
н/о н/о +5.8 -2.0 57 +2 +2 1029.8 971.4
11 26.03 В 5
{10}
н/о н/о +7.3 -2.6 49 +4 +4 1029.2 971.1

 

Местоположение метеостанции Мюлеберг (Швейцария): широта 46.98 долгота 7.28 высота над уровнем моря 483 м.

В архиве по умолчанию представлена погода в Мюлеберге за последнюю неделю. Архивные данные за месяц целиком и за предыдущие месяцы, начиная с января 2011 года, Вы можете получить, выбрав интересующий диапазон дат из раскрывающегося списка и нажав кнопку "Ввод!".


*Определитесь, кто Вы:
робот инопланетянин человек

Внимание! Время в таблицах - всемирное. Для получения местного времени необходимо прибавить поправку, которая равна 1 ч.

Смотрите также архив погоды в соседних городах и на ближайших метеорологических станциях:

Погода в Берне (Швейцария) (12 км)
Погода в Кресье (Швейцария) (18 км)
Погода на Шасрале (Швейцария) (23 км)
Погода в Гренхене (Швейцария) (25 км)
Погода в Невшателе (Швейцария) (25 км)
Погода в Плаффайен-Обершроте (Швейцария) (26 км)
Погода в Оберёш-Коппигене (Швейцария) (31 км)
Погода в Пейерне (Швейцария) (31 км)
Погода в Виммисе (Швейцария) (37 км)
Погода во Фрибург-Позиойксе (Швейцария) (37 км)

Пояснения к столбцам:

Ветер - указаны скорость ветра в м/с - средняя за 10 мин, порывы в срок и между сроками (в фигурных скобках) и направление, откуда дует ветер: С - северный, СВ - северо-восточный, В - восточный, ЮВ - юго-восточный, Ю - южный, ЮЗ - юго-западный, З - западный, СЗ - северо-западный.
Видимость - горизонтальная дальность видимости в метрах или километрах. При видимости от 1 до 10 км при отсутствии осадков обычно наблюдается дымка, при ухудшении видимости до 1 км и менее - туман. В сухую погоду видимость может ухудшаться дымом, пылью или мглою.
Явления - указаны атмосферные явления, наблюдавшиеся в срок или в последний час перед сроком; фигурными скобками обозначены явления, наблюдавшиеся между сроками (за 1-3 часа до срока); квадратными скобками обозначены град или гололедные отложения с указанием их диаметра в мм.
Облачность - указаны через наклонную черту общая и нижняя облачность в баллах и высота нижней границы облаков в метрах; квадратными скобками обозначены формы облаков: Ci - перистые, Cs - перисто-слоистые, Cc - перисто-кучевые, Ac - высококучевые, As - высокослоистые, Sc - слоисто-кучевые, Ns - слоисто-дождевые, Cu - кучевые, Cb - кучево-дождевые. Подробнее классификацию облаков см. в Атласе облаков (PDF).
T - Температура воздуха - температура, измеренная на высоте 2 м над землей.
Td - Температура точки росы - температура, при понижении до которой содержащийся в воздухе водяной пар достигнет насыщения.
f - Относительная влажность воздуха - влажноcть воздуха, измеренная на высоте 2 м над землей.
Te - Эффективная температура - температура, которую ощущает одетый по сезону человек в тени. Характеристика душности погоды. При расчете учитывается влияние влажности воздуха и скорости ветра на теплоощущения человека.
Tes - Эффективная температура на солнце - температура, которую ощущает человек, с поправкой на солнечный нагрев. Характеристика знойности погоды. Зависит от высоты солнца над горизонтом, облачности и скорости ветра. Ночью, в пасмурную погоду, а также при ветре 12 м/с и более поправка равна нулю.
P - Атмосферное давление - приведенное к уровню моря атмосферное давление.
Po - Атмосферное давление - измеренное на уровне метеостанции атмосферное давление.
Tmin - Минимальная температура - минимум температуры воздуха на высоте 2 м над землей.
Tmax - Максимальная температура - максимум температуры воздуха на высоте 2 м над землей.
R - Количество осадков - Количество выпавших осадков за период времени, мм. При наведении курсора мыши на число - период времени, за который выпало указанное количество осадков.
R24 - Количество осадков - Количество выпавших осадков за 24 часа, мм.
S - Снежный покров - Высота снежного покрова, см. При наведении курсора мыши на число - состояние снежного покрова и степень покрытия местности в баллах.